GPM-CORE

Last updated on Sat Dec 13 2025 00:02:31 GMT+0000 (Coordinated Universal Time)

1 39574U 14009C 25346.17274894 .00011477 00000+0 25125-3 0 9991 2 39574 64.9735 214.5785 0009842 245.0797 114.9321 15.44450966668929
UTC large
Height (km)
Speed (km/s)
/
Latitude / Longitude
Inclination (degrees)
Orbital Period (minutes)
Azimuth
Elevation
Range (km)
Doppler Factor

Next 0 passes for location: London (51.5072 / 0.1276)

Sorry there are no passes over London.